Time,TemperatureF,DewpointF,PressureIn,WindDirection,WindDirectionDegrees,WindSpeedMPH,WindSpeedGustMPH,Humidity,HourlyPrecipIn,Conditions,Clouds,dailyrainin,SoftwareType,DateUTC
2013-04-04 00:00:00,37.6,34.6,30.25,NNW,338,3.0,3.0,89,0.00,RA,RA,0.00,WeatherDisplay:10.37,2013-04-04 05:00:00,
2013-04-04 00:06:00,37.6,34.6,30.25,NNW,338,3.0,3.0,89,0.00,RA,RA,0.00,WeatherDisplay:10.37,2013-04-04 05:06:00,
2013-04-04 00:12:00,37.6,34.6,30.25,NNW,338,3.0,3.0,89,0.00,OVC,OVC,0.00,WeatherDisplay:10.37,2013-04-04 05:12:00,
2013-04-04 00:18:00,37.6,34.6,30.25,NNW,338,3.0,3.0,89,0.00,OVC,OVC,0.00,WeatherDisplay:10.37,2013-04-04 05:18:00,
2013-04-04 00:24:00,37.6,34.7,30.25,NNW,338,3.0,3.0,89,0.00,OVC,OVC,0.00,WeatherDisplay:10.37,2013-04-04 05:24:00,
2013-04-04 00:30:00,37.8,34.8,30.24,NNW,338,2.0,4.0,89,0.00,OVC,OVC,0.00,WeatherDisplay:10.37,2013-04-04 05:30:00,
2013-04-04 00:36:00,37.8,34.8,30.24,NNW,338,3.0,5.0,89,0.00,OVC,OVC,0.00,WeatherDisplay:10.37,2013-04-04 05:36:00,
2013-04-04 00:42:00,37.8,34.8,30.24,NW,321,3.0,6.0,89,0.00,OVC,OVC,0.00,WeatherDisplay:10.37,2013-04-04 05:42:00,
2013-04-04 00:48:00,37.8,34.8,30.24,NW,311,3.0,5.0,89,0.00,OVC,OVC,0.00,WeatherDisplay:10.37,2013-04-04 05:48:00,
2013-04-04 00:54:00,37.8,34.8,30.24,NW,318,3.0,7.0,89,0.00,OVC,OVC,0.00,WeatherDisplay:10.37,2013-04-04 05:54:00,
2013-04-04 01:00:00,37.8,34.8,30.24,NW,310,5.0,7.0,89,0.00,OVC,OVC,0.00,WeatherDisplay:10.37,2013-04-04 06:00:00,
2013-04-04 01:06:00,37.8,34.8,30.24,NW,306,5.0,6.0,89,0.00,OVC,OVC,0.00,WeatherDisplay:10.37,2013-04-04 06:06:00,
2013-04-04 01:12:00,37.8,34.8,30.24,NW,319,5.0,9.0,89,0.00,OVC,OVC,0.00,WeatherDisplay:10.37,2013-04-04 06:12:00,
2013-04-04 01:18:00,37.8,34.8,30.24,NW,323,5.0,6.0,89,0.00,OVC,OVC,0.00,WeatherDisplay:10.37,2013-04-04 06:18:00,
2013-04-04 01:24:00,37.8,35.4,30.24,NNW,328,3.0,6.0,91,0.00,OVC,OVC,0.00,WeatherDisplay:10.37,2013-04-04 06:24:00,
2013-04-04 01:30:00,37.8,35.4,30.23,NW,316,5.0,7.0,91,0.00,OVC,OVC,0.00,WeatherDisplay:10.37,2013-04-04 06:30:00,
2013-04-04 01:36:00,37.8,35.4,30.23,NW,313,5.0,9.0,91,0.00,OVC,OVC,0.00,WeatherDisplay:10.37,2013-04-04 06:36:00,
2013-04-04 01:42:00,37.8,35.4,30.24,NW,321,5.0,7.0,91,0.00,OVC,OVC,0.00,WeatherDisplay:10.37,2013-04-04 06:42:00,
2013-04-04 01:48:00,37.8,35.6,30.23,NNW,334,3.0,9.0,92,0.00,OVC,OVC,0.00,WeatherDisplay:10.37,2013-04-04 06:48:00,
2013-04-04 01:54:00,37.8,35.6,30.23,NW,326,7.0,9.0,92,0.00,OVC,OVC,0.00,WeatherDisplay:10.37,2013-04-04 06:54:00,
2013-04-04 02:00:00,37.7,35.5,30.23,NW,307,6.0,9.0,92,0.00,OVC,OVC,0.00,WeatherDisplay:10.37,2013-04-04 07:00:00,
2013-04-04 02:06:00,37.6,35.4,30.23,WNW,300,7.0,7.0,92,0.00,OVC,OVC,0.00,WeatherDisplay:10.37,2013-04-04 07:06:00,
2013-04-04 02:12:00,37.6,35.4,30.23,WNW,296,6.0,7.0,92,0.00,OVC,OVC,0.00,WeatherDisplay:10.37,2013-04-04 07:12:00,
2013-04-04 02:18:00,37.6,35.4,30.23,WNW,296,6.0,10.0,92,0.00,OVC,OVC,0.00,WeatherDisplay:10.37,2013-04-04 07:18:00,
2013-04-04 02:24:00,37.6,35.4,30.23,NW,304,6.0,9.0,92,0.00,OVC,OVC,0.00,WeatherDisplay:10.37,2013-04-04 07:24:00,
2013-04-04 02:30:00,37.6,35.4,30.23,WNW,297,6.0,8.0,92,0.00,OVC,OVC,0.00,WeatherDisplay:10.37,2013-04-04 07:30:00,
2013-04-04 02:36:00,37.6,35.4,30.23,WNW,290,5.0,7.0,92,0.00,OVC,OVC,0.00,WeatherDisplay:10.37,2013-04-04 07:36:00,
2013-04-04 02:42:00,37.6,35.4,30.23,WNW,295,6.0,7.0,92,0.00,OVC,OVC,0.00,WeatherDisplay:10.37,2013-04-04 07:42:00,
2013-04-04 02:48:00,37.6,35.7,30.23,WNW,299,6.0,9.0,93,0.00,OVC,OVC,0.00,WeatherDisplay:10.37,2013-04-04 07:48:00,
2013-04-04 02:54:00,37.6,35.7,30.22,NW,305,5.0,7.0,93,0.00,OVC,OVC,0.00,WeatherDisplay:10.37,2013-04-04 07:54:00,
2013-04-04 03:00:00,37.6,35.7,30.22,WNW,301,6.0,6.0,93,0.00,OVC,OVC,0.00,WeatherDisplay:10.37,2013-04-04 08:00:00,
2013-04-04 03:06:00,37.6,35.7,30.22,WNW,295,3.0,5.0,93,0.00,OVC,OVC,0.00,WeatherDisplay:10.37,2013-04-04 08:06:00,
2013-04-04 03:12:00,37.8,35.9,30.22,WNW,294,6.0,7.0,93,0.00,OVC,OVC,0.00,WeatherDisplay:10.37,2013-04-04 08:12:00,
2013-04-04 03:18:00,37.8,35.9,30.22,NW,304,5.0,6.0,93,0.00,OVC,OVC,0.00,WeatherDisplay:10.37,2013-04-04 08:18:00,
2013-04-04 03:24:00,37.8,35.9,30.22,NW,306,3.0,5.0,93,0.00,OVC,OVC,0.00,WeatherDisplay:10.37,2013-04-04 08:24:00,
2013-04-04 03:30:00,37.8,35.9,30.22,NW,305,3.0,4.0,93,0.00,OVC,OVC,0.00,WeatherDisplay:10.37,2013-04-04 08:30:00,
2013-04-04 03:36:00,37.8,35.9,30.22,WNW,293,3.0,6.0,93,0.00,OVC,OVC,0.00,WeatherDisplay:10.37,2013-04-04 08:36:00,
2013-04-04 03:42:00,37.8,35.9,30.21,WNW,303,0.0,4.0,93,0.00,OVC,OVC,0.00,WeatherDisplay:10.37,2013-04-04 08:42:00,
2013-04-04 03:48:00,37.8,35.9,30.21,NW,306,1.0,4.0,93,0.00,OVC,OVC,0.00,WeatherDisplay:10.37,2013-04-04 08:48:00,
2013-04-04 03:54:00,37.8,35.9,30.21,NW,316,3.0,6.0,93,0.00,OVC,OVC,0.00,WeatherDisplay:10.37,2013-04-04 08:54:00,
2013-04-04 04:00:00,37.8,35.9,30.21,NW,323,0.0,4.0,93,0.00,OVC,OVC,0.00,WeatherDisplay:10.37,2013-04-04 09:00:00,
2013-04-04 04:06:00,38.0,36.1,30.21,NW,323,3.0,6.0,93,0.00,OVC,OVC,0.00,WeatherDisplay:10.37,2013-04-04 09:06:00,
2013-04-04 04:12:00,38.0,36.1,30.21,NW,311,5.0,7.0,93,0.00,OVC,OVC,0.00,WeatherDisplay:10.37,2013-04-04 09:12:00,
2013-04-04 04:18:00,38.0,36.1,30.20,WNW,302,6.0,7.0,93,0.00,OVC,OVC,0.00,WeatherDisplay:10.37,2013-04-04 09:18:00,
2013-04-04 04:24:00,38.0,36.1,30.20,NW,308,2.0,4.0,93,0.00,OVC,OVC,0.00,WeatherDisplay:10.37,2013-04-04 09:24:00,
2013-04-04 04:30:00,38.0,36.1,30.20,WNW,296,2.0,4.0,93,0.00,OVC,OVC,0.00,WeatherDisplay:10.37,2013-04-04 09:30:00,
2013-04-04 04:36:00,38.0,36.1,30.20,NW,309,0.0,4.0,93,0.00,OVC,OVC,0.00,WeatherDisplay:10.37,2013-04-04 09:36:00,
2013-04-04 04:42:00,38.0,36.1,30.20,NNW,332,3.0,5.0,93,0.00,OVC,OVC,0.00,WeatherDisplay:10.37,2013-04-04 09:42:00,
2013-04-04 04:48:00,38.0,36.1,30.20,NNW,338,2.0,5.0,93,0.00,OVC,OVC,0.00,WeatherDisplay:10.37,2013-04-04 09:48:00,
2013-04-04 04:54:00,38.0,36.1,30.20,NNW,338,2.0,3.0,93,0.00,OVC,OVC,0.00,WeatherDisplay:10.37,2013-04-04 09:54:00,
2013-04-04 05:00:00,38.0,36.1,30.20,NNW,338,3.0,4.0,93,0.00,OVC,OVC,0.00,WeatherDisplay:10.37,2013-04-04 10:00:00,
2013-04-04 05:06:00,38.0,36.1,30.20,NNW,338,0.0,0.0,93,0.00,OVC,OVC,0.00,WeatherDisplay:10.37,2013-04-04 10:06:00,
2013-04-04 05:12:00,38.0,36.1,30.20,NNW,338,0.0,0.0,93,0.00,OVC,OVC,0.00,WeatherDisplay:10.37,2013-04-04 10:12:00,
2013-04-04 05:18:00,38.0,36.1,30.20,NNW,338,0.0,0.0,93,0.00,OVC,OVC,0.00,WeatherDisplay:10.37,2013-04-04 10:18:00,
2013-04-04 05:24:00,38.0,36.1,30.20,NNW,338,0.0,0.0,93,0.00,OVC,OVC,0.00,WeatherDisplay:10.37,2013-04-04 10:24:00,
2013-04-04 05:30:00,37.8,36.2,30.20,NNW,338,0.0,0.0,94,0.00,OVC,OVC,0.00,WeatherDisplay:10.37,2013-04-04 10:30:00,
2013-04-04 05:36:00,37.8,36.2,30.20,NNW,338,0.0,0.0,94,0.00,OVC,OVC,0.00,WeatherDisplay:10.37,2013-04-04 10:36:00,
2013-04-04 05:42:00,37.8,36.2,30.19,NNW,338,0.0,0.0,94,0.00,OVC,OVC,0.00,WeatherDisplay:10.37,2013-04-04 10:42:00,
2013-04-04 05:48:00,37.8,36.2,30.19,NNW,338,0.0,0.0,94,0.00,OVC,OVC,0.00,WeatherDisplay:10.37,2013-04-04 10:48:00,
2013-04-04 05:54:00,37.8,36.2,30.19,NNW,338,0.0,0.0,94,0.00,OVC,OVC,0.00,WeatherDisplay:10.37,2013-04-04 10:54:00,
2013-04-04 06:00:00,37.8,36.2,30.19,NNW,338,0.0,0.0,94,0.00,OVC,OVC,0.00,WeatherDisplay:10.37,2013-04-04 11:00:00,
2013-04-04 06:06:00,37.8,36.2,30.19,NNW,338,0.0,0.0,94,0.00,OVC,OVC,0.00,WeatherDisplay:10.37,2013-04-04 11:06:00,
2013-04-04 06:12:00,37.8,36.2,30.19,NNW,338,3.0,4.0,94,0.00,OVC,OVC,0.00,WeatherDisplay:10.37,2013-04-04 11:12:00,
2013-04-04 06:18:00,37.8,36.2,30.19,NW,319,3.0,6.0,94,0.00,OVC,OVC,0.00,WeatherDisplay:10.37,2013-04-04 11:18:00,
2013-04-04 06:24:00,37.8,36.2,30.19,WNW,291,3.0,5.0,94,0.00,OVC,OVC,0.00,WeatherDisplay:10.37,2013-04-04 11:24:00,
2013-04-04 06:30:00,37.6,36.0,30.19,NW,310,6.0,7.0,94,0.00,OVC,OVC,0.00,WeatherDisplay:10.37,2013-04-04 11:30:00,
2013-04-04 06:36:00,37.6,36.0,30.19,WNW,302,5.0,9.0,94,0.00,OVC,OVC,0.00,WeatherDisplay:10.37,2013-04-04 11:36:00,
2013-04-04 06:42:00,37.6,36.0,30.19,NW,309,7.0,8.0,94,0.00,OVC,OVC,0.00,WeatherDisplay:10.37,2013-04-04 11:42:00,
2013-04-04 06:48:00,37.4,35.8,30.19,NW,309,5.0,8.0,94,0.00,OVC,OVC,0.00,WeatherDisplay:10.37,2013-04-04 11:48:00,
2013-04-04 06:54:00,37.4,35.8,30.19,West,279,6.0,7.0,94,0.00,OVC,OVC,0.00,WeatherDisplay:10.37,2013-04-04 11:54:00,
2013-04-04 07:00:00,37.4,35.8,30.19,WNW,284,7.0,7.0,94,0.00,OVC,OVC,0.00,WeatherDisplay:10.37,2013-04-04 12:00:00,
2013-04-04 07:06:00,37.6,36.0,30.19,NW,315,6.0,7.0,94,0.00,BKN,BKN,0.00,WeatherDisplay:10.37,2013-04-04 12:06:00,
2013-04-04 07:12:00,37.4,35.8,30.19,NW,321,5.0,8.0,94,0.00,BKN,BKN,0.00,WeatherDisplay:10.37,2013-04-04 12:12:00,
2013-04-04 07:18:00,37.4,35.8,30.19,NW,320,6.0,7.0,94,0.00,BKN,BKN,0.00,WeatherDisplay:10.37,2013-04-04 12:18:00,
2013-04-04 07:24:00,37.4,35.8,30.19,NW,313,6.0,7.0,94,0.00,BKN,BKN,0.00,WeatherDisplay:10.37,2013-04-04 12:24:00,
2013-04-04 07:30:00,37.4,35.8,30.19,NW,304,6.0,7.0,94,0.00,BKN,BKN,0.00,WeatherDisplay:10.37,2013-04-04 12:30:00,
2013-04-04 07:36:00,37.6,36.0,30.19,WNW,303,3.0,8.0,94,0.00,BKN,BKN,0.00,WeatherDisplay:10.37,2013-04-04 12:36:00,
2013-04-04 07:42:00,37.6,36.0,30.19,NW,322,0.0,2.0,94,0.00,BKN,BKN,0.00,WeatherDisplay:10.37,2013-04-04 12:42:00,
2013-04-04 07:48:00,37.6,36.0,30.19,NNW,338,0.0,4.0,94,0.00,BKN,BKN,0.00,WeatherDisplay:10.37,2013-04-04 12:48:00,
2013-04-04 07:54:00,37.6,36.0,30.19,North,355,2.0,6.0,94,0.00,BKN,BKN,0.00,WeatherDisplay:10.37,2013-04-04 12:54:00,
2013-04-04 08:00:00,37.8,36.2,30.19,NNW,341,5.0,7.0,94,0.00,BKN,BKN,0.00,WeatherDisplay:10.37,2013-04-04 13:00:00,
2013-04-04 08:06:00,37.9,36.3,30.19,NNW,340,0.0,0.0,94,0.00,BKN,BKN,0.00,WeatherDisplay:10.37,2013-04-04 13:06:00,
2013-04-04 08:12:00,38.0,36.4,30.19,North,4,3.0,6.0,94,0.00,BKN,BKN,0.00,WeatherDisplay:10.37,2013-04-04 13:12:00,
2013-04-04 08:18:00,38.4,36.8,30.19,NNW,343,2.0,5.0,94,0.00,BKN,BKN,0.00,WeatherDisplay:10.37,2013-04-04 13:18:00,
2013-04-04 08:24:00,38.7,37.1,30.19,NNW,331,2.0,5.0,94,0.00,BKN,BKN,0.00,WeatherDisplay:10.37,2013-04-04 13:24:00,
2013-04-04 08:30:00,38.9,37.0,30.19,NE,48,2.0,4.0,93,0.00,BKN,BKN,0.00,WeatherDisplay:10.37,2013-04-04 13:30:00,
2013-04-04 08:36:00,39.2,37.3,30.19,North,352,3.0,4.0,93,0.00,BKN,BKN,0.00,WeatherDisplay:10.37,2013-04-04 13:36:00,
2013-04-04 08:42:00,39.6,37.4,30.19,NNW,340,0.0,4.0,92,0.00,BKN,BKN,0.00,WeatherDisplay:10.37,2013-04-04 13:42:00,
2013-04-04 08:48:00,39.6,37.4,30.19,WNW,301,3.0,4.0,92,0.00,BKN,BKN,0.00,WeatherDisplay:10.37,2013-04-04 13:48:00,
2013-04-04 08:54:00,40.0,37.8,30.19,NW,321,1.0,3.0,92,0.00,BKN,BKN,0.00,WeatherDisplay:10.37,2013-04-04 13:54:00,
2013-04-04 09:00:00,40.3,37.3,30.19,NNW,346,2.0,5.0,89,0.00,BKN,BKN,0.00,WeatherDisplay:10.37,2013-04-04 14:00:00,
2013-04-04 09:06:00,40.5,37.5,30.19,NW,313,3.0,7.0,89,0.00,SCT,SCT,0.00,WeatherDisplay:10.37,2013-04-04 14:06:00,
2013-04-04 09:12:00,40.9,37.6,30.19,WNW,292,5.0,7.0,88,0.00,SCT,SCT,0.00,WeatherDisplay:10.37,2013-04-04 14:12:00,
2013-04-04 09:18:00,41.6,37.7,30.20,WNW,292,5.0,10.0,86,0.00,SCT,SCT,0.00,WeatherDisplay:10.37,2013-04-04 14:18:00,
2013-04-04 09:24:00,42.3,38.1,30.20,WNW,292,3.0,10.0,85,0.00,SCT,SCT,0.00,WeatherDisplay:10.37,2013-04-04 14:24:00,
2013-04-04 09:30:00,42.3,37.8,30.20,WNW,302,3.0,7.0,84,0.00,SCT,SCT,0.00,WeatherDisplay:10.37,2013-04-04 14:30:00,
2013-04-04 09:36:00,42.6,38.1,30.20,WNW,301,8.0,9.0,84,0.00,SCT,SCT,0.00,WeatherDisplay:10.37,2013-04-04 14:36:00,
2013-04-04 09:42:00,42.5,37.7,30.19,NW,304,6.0,10.0,83,0.00,SCT,SCT,0.00,WeatherDisplay:10.37,2013-04-04 14:42:00,
2013-04-04 09:48:00,42.8,37.7,30.19,WNW,302,7.0,9.0,82,0.00,SCT,SCT,0.00,WeatherDisplay:10.37,2013-04-04 14:48:00,
2013-04-04 09:54:00,43.2,38.1,30.19,WNW,294,7.0,9.0,82,0.00,SCT,SCT,0.00,WeatherDisplay:10.37,2013-04-04 14:54:00,
2013-04-04 10:00:00,43.7,37.9,30.19,WNW,303,6.0,9.0,80,0.00,SCT,SCT,0.00,WeatherDisplay:10.37,2013-04-04 15:00:00,
2013-04-04 10:06:00,44.3,38.2,30.19,NW,323,7.0,9.0,79,0.00,SCT,SCT,0.00,WeatherDisplay:10.37,2013-04-04 15:06:00,
2013-04-04 10:12:00,44.5,38.1,30.19,NW,312,6.0,10.0,78,0.00,SCT,SCT,0.00,WeatherDisplay:10.37,2013-04-04 15:12:00,
2013-04-04 10:18:00,45.2,38.7,30.19,WNW,303,6.0,9.0,78,0.00,SCT,SCT,0.00,WeatherDisplay:10.37,2013-04-04 15:18:00,
2013-04-04 10:24:00,45.4,38.2,30.19,WNW,295,6.0,10.0,76,0.00,SCT,SCT,0.00,WeatherDisplay:10.37,2013-04-04 15:24:00,
2013-04-04 10:30:00,45.2,38.1,30.19,WNW,293,9.0,12.0,76,0.00,SCT,SCT,0.00,WeatherDisplay:10.37,2013-04-04 15:30:00,
2013-04-04 10:36:00,45.3,38.1,30.19,WNW,297,9.0,14.0,76,0.00,SCT,SCT,0.00,WeatherDisplay:10.37,2013-04-04 15:36:00,
2013-04-04 10:42:00,46.4,38.2,30.19,NW,314,7.0,9.0,73,0.00,SCT,SCT,0.00,WeatherDisplay:10.37,2013-04-04 15:42:00,
2013-04-04 10:48:00,46.2,38.0,30.19,WNW,303,10.0,14.0,73,0.00,SCT,SCT,0.00,WeatherDisplay:10.37,2013-04-04 15:48:00,
2013-04-04 10:54:00,46.8,37.5,30.19,NW,304,5.0,7.0,70,0.00,SCT,SCT,0.00,WeatherDisplay:10.37,2013-04-04 15:54:00,
2013-04-04 11:00:00,46.3,35.1,30.20,NW,315,7.0,9.0,65,0.00,SCT,SCT,0.00,WeatherDisplay:10.37,2013-04-04 16:00:00,
2013-04-04 11:06:00,46.2,34.3,30.20,NW,314,5.0,12.0,63,0.00,SCT,SCT,0.00,WeatherDisplay:10.37,2013-04-04 16:06:00,
2013-04-04 11:12:00,47.0,33.4,30.20,NW,313,7.0,12.0,59,0.00,SCT,SCT,0.00,WeatherDisplay:10.37,2013-04-04 16:12:00,
2013-04-04 11:18:00,47.9,35.5,30.20,NW,314,3.0,8.0,62,0.00,SCT,SCT,0.00,WeatherDisplay:10.37,2013-04-04 16:18:00,
2013-04-04 11:24:00,47.2,36.4,30.20,WNW,303,8.0,13.0,66,0.00,SCT,SCT,0.00,WeatherDisplay:10.37,2013-04-04 16:24:00,
2013-04-04 11:30:00,47.9,37.1,30.20,NW,304,6.0,10.0,66,0.00,SCT,SCT,0.00,WeatherDisplay:10.37,2013-04-04 16:30:00,
2013-04-04 11:36:00,47.2,35.2,30.20,WNW,290,3.0,9.0,63,0.00,SCT,SCT,0.00,WeatherDisplay:10.37,2013-04-04 16:36:00,
2013-04-04 11:42:00,48.4,36.0,30.19,West,271,8.0,9.0,62,0.00,SCT,SCT,0.00,WeatherDisplay:10.37,2013-04-04 16:42:00,
2013-04-04 11:48:00,48.4,36.7,30.19,West,273,9.0,12.0,64,0.00,SCT,SCT,0.00,WeatherDisplay:10.37,2013-04-04 16:48:00,
2013-04-04 11:54:00,49.3,37.2,30.19,West,271,10.0,14.0,63,0.00,SCT,SCT,0.00,WeatherDisplay:10.37,2013-04-04 16:54:00,
2013-04-04 12:00:00,49.3,36.0,30.19,WNW,294,10.0,15.0,60,0.00,SCT,SCT,0.00,WeatherDisplay:10.37,2013-04-04 17:00:00,
2013-04-04 12:06:00,49.0,36.1,30.20,WNW,293,7.0,12.0,61,0.00,SCT,SCT,0.00,WeatherDisplay:10.37,2013-04-04 17:06:00,
2013-04-04 12:12:00,50.0,36.6,30.20,West,279,8.0,12.0,60,0.00,SCT,SCT,0.00,WeatherDisplay:10.37,2013-04-04 17:12:00,
2013-04-04 12:18:00,50.3,37.0,30.19,West,268,7.0,13.0,60,0.00,SCT,SCT,0.00,WeatherDisplay:10.37,2013-04-04 17:18:00,
2013-04-04 12:24:00,50.6,36.8,30.19,West,278,7.0,12.0,59,0.00,SCT,SCT,0.00,WeatherDisplay:10.37,2013-04-04 17:24:00,
2013-04-04 12:30:00,50.6,36.8,30.20,WNW,292,5.0,10.0,59,0.00,SCT,SCT,0.00,WeatherDisplay:10.37,2013-04-04 17:30:00,
2013-04-04 12:36:00,51.9,37.1,30.19,West,276,10.0,12.0,57,0.00,SCT,SCT,0.00,WeatherDisplay:10.37,2013-04-04 17:36:00,
2013-04-04 12:42:00,51.7,37.4,30.19,WNW,286,8.0,13.0,58,0.00,SCT,SCT,0.00,WeatherDisplay:10.37,2013-04-04 17:42:00,
2013-04-04 12:48:00,51.6,37.3,30.19,West,279,5.0,9.0,58,0.00,SCT,SCT,0.00,WeatherDisplay:10.37,2013-04-04 17:48:00,
2013-04-04 12:54:00,52.3,38.4,30.19,WNW,288,9.0,14.0,59,0.00,SCT,SCT,0.00,WeatherDisplay:10.37,2013-04-04 17:54:00,
2013-04-04 13:00:00,51.3,37.9,30.19,WNW,301,9.0,14.0,60,0.00,SCT,SCT,0.00,WeatherDisplay:10.37,2013-04-04 18:00:00,
2013-04-04 13:06:00,52.7,38.3,30.19,NW,313,5.0,8.0,58,0.00,SCT,SCT,0.00,WeatherDisplay:10.37,2013-04-04 18:06:00,
2013-04-04 13:12:00,53.3,39.3,30.18,NW,311,7.0,16.0,59,0.00,SCT,SCT,0.00,WeatherDisplay:10.37,2013-04-04 18:12:00,
2013-04-04 13:18:00,52.6,38.7,30.18,NW,311,5.0,10.0,59,0.00,SCT,SCT,0.00,WeatherDisplay:10.37,2013-04-04 18:18:00,
2013-04-04 13:24:00,52.7,38.4,30.18,North,351,5.0,6.0,58,0.00,SCT,SCT,0.00,WeatherDisplay:10.37,2013-04-04 18:24:00,
2013-04-04 13:30:00,52.7,37.8,30.18,NW,319,3.0,7.0,57,0.00,SCT,SCT,0.00,WeatherDisplay:10.37,2013-04-04 18:30:00,
2013-04-04 13:36:00,52.6,38.3,30.18,West,265,6.0,9.0,58,0.00,SCT,SCT,0.00,WeatherDisplay:10.37,2013-04-04 18:36:00,
2013-04-04 13:42:00,53.3,38.9,30.17,WNW,291,6.0,9.0,58,0.00,SCT,SCT,0.00,WeatherDisplay:10.37,2013-04-04 18:42:00,
2013-04-04 13:48:00,51.5,38.1,30.17,WNW,296,5.0,10.0,60,0.00,SCT,SCT,0.00,WeatherDisplay:10.37,2013-04-04 18:48:00,
2013-04-04 13:54:00,53.6,39.1,30.17,West,274,12.0,14.0,58,0.00,SCT,SCT,0.00,WeatherDisplay:10.37,2013-04-04 18:54:00,
2013-04-04 14:00:00,53.3,39.3,30.17,WNW,295,12.0,16.0,59,0.00,SCT,SCT,0.00,WeatherDisplay:10.37,2013-04-04 19:00:00,
2013-04-04 14:06:00,53.3,39.3,30.17,WNW,287,9.0,12.0,59,0.00,BKN,BKN,0.00,WeatherDisplay:10.37,2013-04-04 19:06:00,
2013-04-04 14:12:00,53.4,39.0,30.17,WNW,284,6.0,12.0,58,0.00,BKN,BKN,0.00,WeatherDisplay:10.37,2013-04-04 19:12:00,
2013-04-04 14:18:00,54.1,39.2,30.16,West,259,10.0,12.0,57,0.01,RA,RA,0.01,WeatherDisplay:10.37,2013-04-04 19:18:00,
2013-04-04 14:24:00,54.7,40.2,30.16,WNW,284,3.0,10.0,58,0.00,RA,RA,0.01,WeatherDisplay:10.37,2013-04-04 19:24:00,
2013-04-04 14:30:00,54.2,39.7,30.15,WNW,283,7.0,12.0,58,0.00,BKN,BKN,0.01,WeatherDisplay:10.37,2013-04-04 19:30:00,
2013-04-04 14:36:00,55.8,39.9,30.15,SW,221,5.0,6.0,55,0.00,BKN,BKN,0.01,WeatherDisplay:10.37,2013-04-04 19:36:00,
2013-04-04 14:42:00,54.9,40.0,30.14,South,191,5.0,7.0,57,0.00,BKN,BKN,0.01,WeatherDisplay:10.37,2013-04-04 19:42:00,
2013-04-04 14:48:00,53.9,39.5,30.14,WNW,287,9.0,13.0,58,0.00,BKN,BKN,0.01,WeatherDisplay:10.37,2013-04-04 19:48:00,
2013-04-04 14:54:00,54.5,40.0,30.14,WNW,291,7.0,12.0,58,0.00,BKN,BKN,0.01,WeatherDisplay:10.37,2013-04-04 19:54:00,
2013-04-04 15:00:00,54.3,39.8,30.14,WNW,290,7.0,12.0,58,0.00,BKN,BKN,0.01,WeatherDisplay:10.37,2013-04-04 20:00:00,
2013-04-04 15:06:00,54.1,39.6,30.14,WNW,297,8.0,12.0,58,0.00,SCT,SCT,0.01,WeatherDisplay:10.37,2013-04-04 20:06:00,
2013-04-04 15:12:00,56.6,40.6,30.14,West,273,3.0,7.0,55,0.00,SCT,SCT,0.01,WeatherDisplay:10.37,2013-04-04 20:12:00,
2013-04-04 15:18:00,55.3,39.4,30.14,WSW,247,8.0,9.0,55,0.00,SCT,SCT,0.01,WeatherDisplay:10.37,2013-04-04 20:18:00,
2013-04-04 15:24:00,56.6,39.6,30.14,West,275,3.0,5.0,53,0.00,SCT,SCT,0.01,WeatherDisplay:10.37,2013-04-04 20:24:00,
2013-04-04 15:30:00,55.9,40.9,30.14,SE,146,2.0,6.0,57,0.00,SCT,SCT,0.01,WeatherDisplay:10.37,2013-04-04 20:30:00,
2013-04-04 15:36:00,55.3,40.7,30.13,WNW,291,8.0,9.0,58,0.00,SCT,SCT,0.01,WeatherDisplay:10.37,2013-04-04 20:36:00,
2013-04-04 15:42:00,55.9,40.9,30.12,WNW,287,10.0,12.0,57,0.00,SCT,SCT,0.01,WeatherDisplay:10.37,2013-04-04 20:42:00,
2013-04-04 15:48:00,54.7,41.1,30.12,WNW,288,5.0,7.0,60,0.00,SCT,SCT,0.01,WeatherDisplay:10.37,2013-04-04 20:48:00,
2013-04-04 15:54:00,55.4,40.9,30.12,WNW,298,12.0,14.0,58,0.00,SCT,SCT,0.01,WeatherDisplay:10.37,2013-04-04 20:54:00,
2013-04-04 16:00:00,57.8,41.7,30.12,West,274,6.0,8.0,55,0.00,SCT,SCT,0.01,WeatherDisplay:10.37,2013-04-04 21:00:00,
2013-04-04 16:06:00,55.8,40.8,30.11,NE,45,3.0,7.0,57,0.00,FEW,FEW,0.01,WeatherDisplay:10.37,2013-04-04 21:06:00,
2013-04-04 16:12:00,58.5,42.3,30.11,NNW,327,5.0,12.0,55,0.00,FEW,FEW,0.01,WeatherDisplay:10.37,2013-04-04 21:12:00,
2013-04-04 16:18:00,58.0,42.4,30.11,NW,308,9.0,14.0,56,0.00,FEW,FEW,0.01,WeatherDisplay:10.37,2013-04-04 21:18:00,
2013-04-04 16:24:00,57.7,41.7,30.11,WNW,301,7.0,13.0,55,0.00,RA,RA,0.00,WeatherDisplay:10.37,2013-04-04 21:24:00,
2013-04-04 16:30:00,58.2,42.1,30.12,West,281,5.0,9.0,55,0.00,RA,RA,0.00,WeatherDisplay:10.37,2013-04-04 21:30:00,
2013-04-04 16:36:00,56.5,41.4,30.12,WNW,282,8.0,12.0,57,0.00,FEW,FEW,0.00,WeatherDisplay:10.37,2013-04-04 21:36:00,
2013-04-04 16:42:00,55.7,40.7,30.12,West,277,7.0,8.0,57,0.00,FEW,FEW,0.00,WeatherDisplay:10.37,2013-04-04 21:42:00,
2013-04-04 16:48:00,56.6,41.5,30.12,West,264,8.0,12.0,57,0.00,FEW,FEW,0.00,WeatherDisplay:10.37,2013-04-04 21:48:00,
2013-04-04 16:54:00,57.9,41.8,30.12,WNW,290,8.0,12.0,55,0.00,FEW,FEW,0.00,WeatherDisplay:10.37,2013-04-04 21:54:00,
2013-04-04 17:00:00,58.2,42.5,30.12,WNW,293,8.0,10.0,56,0.00,FEW,FEW,0.00,WeatherDisplay:10.37,2013-04-04 22:00:00,
2013-04-04 17:06:00,58.2,42.6,30.11,WNW,286,6.0,7.0,56,0.00,SCT,SCT,0.00,WeatherDisplay:10.37,2013-04-04 22:06:00,
2013-04-04 17:12:00,58.1,42.0,30.11,WNW,295,8.0,10.0,55,0.00,SCT,SCT,0.00,WeatherDisplay:10.37,2013-04-04 22:12:00,
2013-04-04 17:18:00,58.3,42.1,30.11,NW,305,2.0,4.0,55,0.00,SCT,SCT,0.00,WeatherDisplay:10.37,2013-04-04 22:18:00,
2013-04-04 17:24:00,58.7,42.5,30.11,East,99,3.0,4.0,55,0.00,SCT,SCT,0.00,WeatherDisplay:10.37,2013-04-04 22:24:00,
2013-04-04 17:30:00,57.7,41.7,30.10,WNW,290,6.0,7.0,55,0.00,SCT,SCT,0.00,WeatherDisplay:10.37,2013-04-04 22:30:00,
2013-04-04 17:36:00,58.1,42.9,30.11,WNW,297,6.0,8.0,57,0.00,SCT,SCT,0.00,WeatherDisplay:10.37,2013-04-04 22:36:00,
2013-04-04 17:42:00,57.9,42.7,30.11,WNW,284,5.0,6.0,57,0.00,SCT,SCT,0.00,WeatherDisplay:10.37,2013-04-04 22:42:00,
2013-04-04 17:48:00,58.0,41.9,30.11,WNW,290,8.0,10.0,55,0.00,SCT,SCT,0.00,WeatherDisplay:10.37,2013-04-04 22:48:00,
2013-04-04 17:54:00,57.6,42.0,30.11,WNW,287,7.0,10.0,56,0.00,SCT,SCT,0.00,WeatherDisplay:10.37,2013-04-04 22:54:00,
2013-04-04 18:00:00,58.9,42.2,30.11,WNW,296,2.0,5.0,54,0.00,SCT,SCT,0.00,WeatherDisplay:10.37,2013-04-04 23:00:00,
2013-04-04 18:06:00,59.0,42.4,30.10,WNW,302,5.0,7.0,54,0.00,FEW,FEW,0.00,WeatherDisplay:10.37,2013-04-04 23:06:00,
2013-04-04 18:12:00,59.8,42.1,30.10,WNW,284,5.0,5.0,52,0.00,FEW,FEW,0.00,WeatherDisplay:10.37,2013-04-04 23:12:00,
2013-04-04 18:18:00,61.6,42.2,30.11,West,272,9.0,10.0,49,0.00,FEW,FEW,0.00,WeatherDisplay:10.37,2013-04-04 23:18:00,
2013-04-04 18:24:00,61.9,42.5,30.10,West,270,5.0,7.0,49,0.00,FEW,FEW,0.00,WeatherDisplay:10.37,2013-04-04 23:24:00,
2013-04-04 18:30:00,61.0,42.2,30.10,SW,223,2.0,3.0,50,0.00,FEW,FEW,0.00,WeatherDisplay:10.37,2013-04-04 23:30:00,
2013-04-04 18:36:00,61.8,42.4,30.10,West,281,5.0,9.0,49,0.00,FEW,FEW,0.00,WeatherDisplay:10.37,2013-04-04 23:36:00,
2013-04-04 18:42:00,61.6,42.2,30.10,WNW,294,7.0,7.0,49,0.00,FEW,FEW,0.00,WeatherDisplay:10.37,2013-04-04 23:42:00,
2013-04-04 18:48:00,60.5,41.8,30.10,NW,313,6.0,7.0,50,0.00,FEW,FEW,0.00,WeatherDisplay:10.37,2013-04-04 23:48:00,
2013-04-04 18:54:00,60.5,41.8,30.11,WNW,302,5.0,7.0,50,0.00,FEW,FEW,0.00,WeatherDisplay:10.37,2013-04-04 23:54:00,
2013-04-04 19:00:00,61.2,42.4,30.11,WNW,291,3.0,6.0,50,0.00,FEW,FEW,0.00,WeatherDisplay:10.37,2013-04-05 00:00:00,
2013-04-04 19:06:00,59.8,41.6,30.11,WNW,284,7.0,8.0,51,0.00,FEW,FEW,0.00,WeatherDisplay:10.37,2013-04-05 00:06:00,
2013-04-04 19:12:00,58.9,41.8,30.11,West,278,7.0,9.0,53,0.00,FEW,FEW,0.00,WeatherDisplay:10.37,2013-04-05 00:12:00,
2013-04-04 19:18:00,58.9,41.3,30.11,WNW,282,3.0,6.0,52,0.00,FEW,FEW,0.00,WeatherDisplay:10.37,2013-04-05 00:18:00,
2013-04-04 19:24:00,58.7,41.1,30.11,WNW,283,5.0,5.0,52,0.00,FEW,FEW,0.00,WeatherDisplay:10.37,2013-04-05 00:24:00,
2013-04-04 19:30:00,58.1,41.0,30.11,WNW,298,6.0,7.0,53,0.00,FEW,FEW,0.00,WeatherDisplay:10.37,2013-04-05 00:30:00,
2013-04-04 19:36:00,57.6,41.5,30.11,WNW,283,5.0,6.0,55,0.00,FEW,FEW,0.00,WeatherDisplay:10.37,2013-04-05 00:36:00,
2013-04-04 19:42:00,57.4,41.3,30.12,West,270,3.0,4.0,55,0.00,FEW,FEW,0.00,WeatherDisplay:10.37,2013-04-05 00:42:00,
2013-04-04 19:48:00,57.4,41.3,30.12,West,270,3.0,4.0,55,0.00,FEW,FEW,0.00,WeatherDisplay:10.37,2013-04-05 00:48:00,
2013-04-04 19:54:00,57.4,41.3,30.12,West,270,3.0,4.0,55,0.00,FEW,FEW,0.00,WeatherDisplay:10.37,2013-04-05 00:54:00,
2013-04-04 20:00:00,57.4,41.3,30.12,West,270,3.0,4.0,55,0.00,FEW,FEW,0.00,WeatherDisplay:10.37,2013-04-05 01:00:00,
2013-04-04 20:06:00,53.5,42.0,30.11,West,262,2.0,4.0,65,0.00,SCT,SCT,0.00,WeatherDisplay:10.37,2013-04-05 01:06:00,
2013-04-04 20:12:00,53.1,42.0,30.11,WSW,244,0.0,0.0,66,0.00,SCT,SCT,0.00,WeatherDisplay:10.37,2013-04-05 01:12:00,
2013-04-04 20:18:00,52.5,41.9,30.12,West,263,0.0,0.0,67,0.00,SCT,SCT,0.00,WeatherDisplay:10.37,2013-04-05 01:18:00,
2013-04-04 20:24:00,51.8,41.6,30.12,West,268,0.0,0.0,68,0.00,SCT,SCT,0.00,WeatherDisplay:10.37,2013-04-05 01:24:00,
2013-04-04 20:30:00,51.6,41.7,30.12,WSW,258,0.0,0.0,69,0.00,SCT,SCT,0.00,WeatherDisplay:10.37,2013-04-05 01:30:00,
2013-04-04 20:36:00,51.1,41.6,30.12,South,176,0.0,0.0,70,0.00,SCT,SCT,0.00,WeatherDisplay:10.37,2013-04-05 01:36:00,
2013-04-04 20:42:00,50.7,41.7,30.12,SE,137,0.0,0.0,71,0.00,SCT,SCT,0.00,WeatherDisplay:10.37,2013-04-05 01:42:00,
2013-04-04 20:48:00,50.2,41.6,30.12,SE,144,0.0,0.0,72,0.00,SCT,SCT,0.00,WeatherDisplay:10.37,2013-04-05 01:48:00,
2013-04-04 20:54:00,50.0,41.6,30.13,SE,126,0.0,0.0,73,0.00,SCT,SCT,0.00,WeatherDisplay:10.37,2013-04-05 01:54:00,
2013-04-04 21:00:00,49.6,42.0,30.13,South,189,0.0,0.0,75,0.00,SCT,SCT,0.00,WeatherDisplay:10.37,2013-04-05 02:00:00,
2013-04-04 21:06:00,49.3,42.0,30.13,South,182,0.0,0.0,76,0.00,FEW,FEW,0.00,WeatherDisplay:10.37,2013-04-05 02:06:00,
2013-04-04 21:12:00,49.1,41.8,30.13,SSE,158,3.0,5.0,76,0.00,FEW,FEW,0.00,WeatherDisplay:10.37,2013-04-05 02:12:00,
2013-04-04 21:18:00,49.0,41.8,30.13,SE,143,5.0,6.0,76,0.00,FEW,FEW,0.00,WeatherDisplay:10.37,2013-04-05 02:18:00,
2013-04-04 21:24:00,48.6,41.7,30.14,SSE,168,2.0,5.0,77,0.00,FEW,FEW,0.00,WeatherDisplay:10.37,2013-04-05 02:24:00,
2013-04-04 21:30:00,48.3,41.8,30.14,South,188,2.0,4.0,78,0.00,FEW,FEW,0.00,WeatherDisplay:10.37,2013-04-05 02:30:00,
2013-04-04 21:36:00,47.9,41.7,30.14,SSW,195,2.0,3.0,79,0.00,FEW,FEW,0.00,WeatherDisplay:10.37,2013-04-05 02:36:00,
2013-04-04 21:42:00,47.7,41.8,30.14,ESE,108,3.0,5.0,80,0.00,FEW,FEW,0.00,WeatherDisplay:10.37,2013-04-05 02:42:00,
2013-04-04 21:48:00,47.4,41.5,30.14,SSE,154,6.0,8.0,80,0.00,FEW,FEW,0.00,WeatherDisplay:10.37,2013-04-05 02:48:00,
2013-04-04 21:54:00,47.2,41.3,30.14,South,171,2.0,3.0,80,0.00,FEW,FEW,0.00,WeatherDisplay:10.37,2013-04-05 02:54:00,
2013-04-04 22:00:00,46.9,41.4,30.14,South,173,2.0,4.0,81,0.00,FEW,FEW,0.00,WeatherDisplay:10.37,2013-04-05 03:00:00,
2013-04-04 22:06:00,46.6,41.4,30.14,South,176,1.0,5.0,82,0.00,FEW,FEW,0.00,WeatherDisplay:10.37,2013-04-05 03:06:00,
2013-04-04 22:12:00,46.3,41.7,30.14,SE,142,1.0,3.0,84,0.00,FEW,FEW,0.00,WeatherDisplay:10.37,2013-04-05 03:12:00,
2013-04-04 22:18:00,46.1,41.8,30.14,East,85,3.0,6.0,85,0.00,FEW,FEW,0.00,WeatherDisplay:10.37,2013-04-05 03:18:00,
2013-04-04 22:24:00,46.1,41.8,30.14,North,9,1.0,3.0,85,0.00,FEW,FEW,0.00,WeatherDisplay:10.37,2013-04-05 03:24:00,
2013-04-04 22:30:00,45.5,41.2,30.15,NNW,327,1.0,5.0,85,0.00,FEW,FEW,0.00,WeatherDisplay:10.37,2013-04-05 03:30:00,
2013-04-04 22:36:00,45.5,41.2,30.15,SW,220,3.0,5.0,85,0.00,FEW,FEW,0.00,WeatherDisplay:10.37,2013-04-05 03:36:00,
2013-04-04 22:42:00,45.4,41.1,30.15,SSE,164,2.0,7.0,85,0.00,FEW,FEW,0.00,WeatherDisplay:10.37,2013-04-05 03:42:00,
2013-04-04 22:48:00,45.2,41.2,30.15,SSE,149,3.0,7.0,86,0.00,FEW,FEW,0.00,WeatherDisplay:10.37,2013-04-05 03:48:00,
2013-04-04 22:54:00,44.8,40.8,30.15,South,184,3.0,4.0,86,0.00,FEW,FEW,0.00,WeatherDisplay:10.37,2013-04-05 03:54:00,
2013-04-04 23:00:00,44.5,40.9,30.15,South,176,2.0,3.0,87,0.00,FEW,FEW,0.00,WeatherDisplay:10.37,2013-04-05 04:00:00,
2013-04-04 23:06:00,44.5,40.8,30.15,WNW,303,1.0,3.0,87,0.00,CLR,CLR,0.00,WeatherDisplay:10.37,2013-04-05 04:06:00,
2013-04-04 23:09:00,44.3,40.9,30.15,NNW,338,1.0,4.0,88,0.00,CLR,CLR,0.00,WeatherDisplay:10.37,2013-04-05 04:09:00,
2013-04-04 23:15:00,44.1,40.7,30.16,NW,322,2.0,4.0,88,0.00,CLR,CLR,0.00,WeatherDisplay:10.37,2013-04-05 04:15:00,
2013-04-04 23:21:00,43.9,40.5,30.16,WNW,289,2.0,3.0,88,0.00,CLR,CLR,0.00,WeatherDisplay:10.37,2013-04-05 04:21:00,
2013-04-04 23:27:00,43.9,40.5,30.15,NW,323,1.0,3.0,88,0.00,CLR,CLR,0.00,WeatherDisplay:10.37,2013-04-05 04:27:00,
2013-04-04 23:33:00,43.6,40.2,30.15,NNW,345,3.0,4.0,88,0.00,CLR,CLR,0.00,WeatherDisplay:10.37,2013-04-05 04:33:00,
2013-04-04 23:36:00,43.4,40.3,30.15,NNW,340,3.0,4.0,89,0.00,CLR,CLR,0.00,WeatherDisplay:10.37,2013-04-05 04:36:00,
2013-04-04 23:42:00,43.4,40.3,30.15,North,350,2.0,5.0,89,0.00,CLR,CLR,0.00,WeatherDisplay:10.37,2013-04-05 04:42:00,
2013-04-04 23:48:00,43.4,40.3,30.15,NNE,23,1.0,5.0,89,0.00,CLR,CLR,0.00,WeatherDisplay:10.37,2013-04-05 04:48:00,
2013-04-04 23:54:00,42.9,39.9,30.15,North,1,0.0,0.0,89,0.00,CLR,CLR,0.00,WeatherDisplay:10.37,2013-04-05 04:54:00,